Regional Weather Roundup
Issued by NWS Charleston, SC

Current Version | Previous Version | Text Only | Print | Product List | Glossary Off
Versions: 1 2 3 4 5 6 7 8 9 10 11 12 13 14 15 16 17 18 19 20 21 22 23 24 25 26 27 28 29 30 31 32 33 34 35 36 37 38 39 40 41 42 43 44 45 46 47 48 49 50
000 ASUS42 KCHS 230427 RWRCHS REGIONAL WEATHER ROUNDUP NATIONAL WEATHER SERVICE CHARLESTON SC 1200 AM EDT SAT MAY 23 2015 NOTE: "FAIR" INDICATES FEW OR NO CLOUDS BELOW 12,000 FEET WITH NO SIGNIFICANT WEATHER AND/OR OBSTRUCTIONS TO VISIBILITY. NOT ALL STATIONS ARE QUALITY CONTROLLED BY THE NATIONAL WEATHER SERVICE. USE DATA WITH CAUTION...ESPECIALLY DEWPOINT OBSERVATIONS. SCZ027-030-031-034>040-042>050-230500- ...SOUTHEAST SOUTH CAROLINA... CITY SKY/WX TMP DP RH WIND PRES REMARKS N CHARLESTON CLEAR 64 60 87 CALM 30.27R WATERFRONT PAR N/A 71 64 78 E7 30.24R MOUNT PLEASANT FAIR 63 61 94 CALM 30.27S JOHNS ISLAND CLEAR 63 61 94 CALM 30.27S PINOPOLIS N/A N/A N/A N/A VRB2 30.19S MONCKS CORNER FAIR 63 59 88 CALM 30.27S SUMMERVILLE FAIR 61 61 100 CALM 30.28R BEAUFORT MCAS CLEAR 65 62 90 CALM 30.26R BEAUFORT ARPT FAIR 64 63 94 CALM 30.25F HILTON HEAD IS CLEAR 68 63 83 NE3 30.27S WALTERBORO CLEAR 59 55 88 CALM 30.27S ALLENDALE FAIR 61 57 88 CALM 30.26S ...SOUTHERN MIDLANDS AND PEE DEE... CITY SKY/WX TMP DP RH WIND PRES REMARKS GEORGETOWN NOT AVBL KINGSTREE NOT AVBL ORANGEBURG CLEAR 65 50 58 NE6 30.27R BARNWELL FAIR 63 54 72 CALM 30.27S AIKEN FAIR 55 48 76 NE5 30.30S MANNING FAIR 55 41 58 CALM 30.28S COLUMBIA CLEAR 61 52 72 CALM 30.27R SUMTER CLEAR 62 47 60 CALM 30.26S FLORENCE CLEAR 63 51 65 NE8 30.28R MYRTLE BEACH CLEAR 63 57 82 CALM 30.29F N MYRTLE BEACH CLEAR 60 59 96 CALM 30.27R $$ GAZ063-065-086>088-099>101-113>116-118-119-134>141-150-230500- ...SOUTHEAST GEORGIA... CITY SKY/WX TMP DP RH WIND PRES REMARKS SAVANNAH ARPT CLEAR 67 61 81 E3 30.26R HUNTER AAF CLEAR 67 62 85 E2 30.23R FORT STEWART CLEAR 63 60 90 CALM 30.23S STATESBORO CLEAR 60 60 100 CALM 30.26S SYLVANIA CLEAR 62 60 93 CALM 30.27S CLAXTON FAIR 61 61 100 CALM 30.26S ...CSRA...CENTRAL AND FAR SOUTHEAST GEORGIA... CITY SKY/WX TMP DP RH WIND PRES REMARKS THOMSON CLEAR 58 57 97 CALM 30.32R AUGUSTA-BUSH CLEAR 57 54 89 CALM 30.26R AUGUSTA-DANIEL CLEAR 71 49 45 NE6 30.27R SWAINSBORO FAIR 63 59 88 CALM 30.26S VIDALIA CLEAR 68 61 77 CALM 30.26R EASTMAN FAIR 69 59 69 SE5 30.27R HAZLEHURST FAIR 69 63 79 SE5 30.24S ALMA MOCLDY 68 62 81 E3 30.24R WAYCROSS CLEAR 67 64 89 CALM 30.24S JESUP FAIR 66 63 88 CALM 30.25S BAXLEY FAIR 68 63 83 CALM 30.24S BRUNSWICK CLEAR 66 61 82 CALM 30.25R SAINT SIMONS NOT AVBL $$ SCZ027-028-034-036>038-045-046-048>050-GAZ119-141-230500- ...LAKE AND SUPPLEMENTAL COASTAL OBSERVATIONS... STATION/POSITION TIME TEMP WIND PRES WAVE SWELL AIR SEA DIR/SP/G HT/PER HT/PER/DIR (UTC) (F) (DEG/KT/KT) (MB) (FT/S) (FT/S/D) UPR LAKE MARION NOT AVBL WINYAH BAY 0300 70 70/ 5 1024.0 LAKE MURRAY 0300 69 60/ 2/ 4 1024.4R ACE BASIN NERRS NOT AVBL FORT PULASKI 0400 73 78 60/ 12/ 14 1024.8R SAPELO ISLAND 0400 71 60/ 6 1024.0S $$ ANZ835-935-AMZ111-154-330-350-352-354-370-450-454-472-230500- ...C-MAN AND BUOY OBSERVATIONS... STATION/POSITION TIME TEMP WIND PRES WAVE SWELL AIR SEA DIR/SP/G HT/PER HT/PER/DIR (UTC) (F) (DEG/KT/KT) (MB) (FT/S) (FT/S/D) BUOY 41004 0350 73 76 50/ 12/ 16 1023.7R 3/ 6 2/ 7 BUOY 41008 0350 73 76 60/ 16/ 17 1023.6R 4/ 7 2/ 60/ 7 FOLLY BEACH CMAN 0400 72 70/ 9/ 10 1024.8R CAPERS NEARSHORE 0308 72 90/ 10/ 14 1024.6R FRIPP NEARSHORE 0300 72 100/ 10/ 12 1023.5R STATION/POSITION TIME TEMP WIND PRES WAVE SWELL AIR SEA DIR/SP/G HT/PER HT/PER/DIR (UTC) (F) (DEG/KT/KT) (MB) (FT/S) (FT/S/D) 5E ST. MARYS GA 0321 76 N/A 5/ 6 FRYING PAN BUOY 0350 72 74 60/ 10/ 14 1025.1R 2/ 5 2/ 80/ 6 BUOY 41025 0350 67 77 10/ 4/ 4 1025.2R 3/ 9 3/ 50/ 9 CAPE LOOKOUT NC 0400 67 80/ 3/ 4 1025.1R BUOY 41002 0350 72 74 40/ 16/ 19 1023.2R 6/ 9 3/ 10/ 9 BUOY 41010 0320 80 81 10/ 6/ 6 1021.4R ST AUGUSTINE FL 0400 74 75 40/ 13/ 14 1023.7R $$

USA.gov is the U.S. government's official web portal to all federal, state and local government web resources and services.